Location: Unspecified
(35.6961°N, 0.0000°E)
Time: 02:45:26
(UTC+00:00)

S-56A Canister/Altair - Pass Details

Date: 30 May 2019
Orbit: 633 x 2499 km, 38.9° (Epoch: 16 June)

Event Time Altitude Azimuth Distance (km) Brightness Sun altitude
Rises 02:35:48 0° 284° (WNW) 3,424 - -21.4°
Exits shadow 02:37:32 - 285° (WNW) 2,796 10.2 -21.2°
Reaches altitude 10° 02:37:58 10° 286° (WNW) 2,648 10.0 -21.2°
Maximum altitude 02:44:21 78° 12° (NNE) 1,254 8.6 -20.3°
Drops below altitude 10° 02:54:17 10° 99° (E) 4,001 11.6 -19.0°
Sets 02:58:15 0° 101° (E) 5,285 12.3 -18.4°
